Regional Weather Roundup
Issued by NWS

Home | Current Version | Previous Version | Graphics & Text | Print | Product List | Glossary On
Versions: 1 2 3 4 5 6 7 8 9 10 11 12 13 14 15 16 17 18 19 20 21 22 23 24 25 26 27 28 29 30 31 32 33 34 35 36 37 38 39 40 41 42 43 44 45 46 47 48 49 50
000
ASUS43 KLMK 270010
RWRKY
NATIONAL WEATHER SERVICE LOUISVILLE KY
700 PM EST WED NOV 26 2014

NOTE "FAIR" INDICATES FEW OR NO CLOUDS BELOW 12,000 FEET
WITH NO SIGNIFICANT WEATHER AND/OR OBSTRUCTIONS TO VISIBILITY.

KYZ001>023-026-027-061>063-070>075-270100-
WESTERN AND SOUTH CENTRAL KENTUCKY

CITY           SKY/WX    TMP DP  RH WIND       PRES   REMARKS
PADUCAH        CLOUDY    38  36  92 W6        30.02R WCI  33
HENDERSON      CLOUDY    34  28  80 S5        30.05R WCI  30
OWENSBORO      LGT RAIN  40  32  73 W9        30.05R WCI  34
HOPKINSVILLE   DRIZZLE   39  39  99 SW10      30.02S WCI  32
BOWLING GREEN  CLOUDY    44  25  47 CALM      30.00R
GLASGOW        CLOUDY    40  27  59 E5        29.98F
$$

KYZ024-025-028>034-038-045-046-053-270100-
NORTH CENTRAL KENTUCKY

CITY           SKY/WX    TMP DP  RH WIND       PRES   REMARKS
LOUISVILLE/SDF CLOUDY    42  26  53 CALM      30.02S
LOUISVILLE/LOU CLOUDY    40  28  62 N3        30.03S
FORT KNOX      CLOUDY    38  27  66 NE3       29.99F
$$

KYZ035>037-039>044-047>052-055>060-089>105-270100-
NORTHEAST KENTUCKY

CITY           SKY/WX    TMP DP  RH WIND       PRES   REMARKS
LEXINGTON      CLOUDY    37  28  70 CALM      30.02R
COVINGTON      CLOUDY    35  25  66 N6        30.03R WCI  30
FRANKFORT      CLOUDY    35  29  78 CALM      30.01S
$$

KYZ054-064>069-076>088-106>120-270100-
SOUTHEAST KENTUCKY

CITY           SKY/WX    TMP DP  RH WIND       PRES   REMARKS
JACKSON        PTCLDY    41  26  55 VRB3      30.00R
LONDON         CLOUDY    44  21  40 CALM      30.01S
SOMERSET       CLOUDY    39  27  60 CALM      30.02F
MIDDLESBORO    NOT AVBL
MONTICELLO     CLOUDY    38  28  67 CALM      30.03F
$$




USA.gov is the U.S. government's official web portal to all federal, state and local government web resources and services.